D7126 Weather Reports


Display with metric or nautical units.
time (UTC)temp
F
wind
direction
speed
MPH
gust
MPH
rain 1hr
in
rain 24hr
in
rain mn
in
humidity
%
barometer
mb
20260508122033 65 173 12.0 22.0 0.00 0.00 0.00 64 1001.9
20260508121532 66 157 10.0 19.0 0.00 0.00 0.00 63 1002.0
20260508121034 65 172 10.0 19.0 0.00 0.00 0.00 65 1002.2
20260508120531 65 180 9.0 19.0 0.00 0.00 0.00 64 1002.3
20260508120030 65 171 7.0 16.0 0.00 0.00 0.00 66 1002.3
20260508115838 65 200 9.0 17.0 0.00 0.00 0.00 65 1002.4
20260508115220 65 119 13.0 24.0 0.00 0.00 0.00 65 1002.3
20260508115129 65 153 10.0 18.0 0.00 0.00 0.00 67 1002.4
20260508114031 65 211 13.0 24.0 0.00 0.00 0.00 62 1002.5
20260508113532 66 188 11.0 22.0 0.00 0.00 0.00 61 1002.4
20260508113028 66 211 11.0 19.0 0.00 0.00 0.00 61 1002.4
20260508112531 65 215 14.0 23.0 0.00 0.00 0.00 61 1002.4
20260508112020 65 198 13.0 23.0 0.00 0.00 0.00 61 1002.5
20260508111521 65 190 11.0 20.0 0.00 0.00 0.00 63 1002.6
20260508111020 65 200 11.0 21.0 0.00 0.00 0.00 63 1002.7
20260508110521 64 182 11.0 21.0 0.00 0.00 0.00 65 1002.7
20260508110021 64 184 13.0 25.0 0.00 0.00 0.00 64 1002.7
20260508105846 65 200 12.0 25.0 0.00 0.00 0.00 64 1002.9
20260508105021 65 224 11.0 19.0 0.00 0.00 0.00 68 1002.8
20260508104521 64 192 12.0 19.0 0.00 0.00 0.00 66 1002.9
20260508104022 64 215 13.0 18.0 0.00 0.00 0.00 66 1002.9
20260508103834 63 238 12.0 22.0 0.00 0.00 0.00 66 1002.9
20260508103017 63 221 10.0 22.0 0.00 0.00 0.00 67 1002.9
20260508102517 64 205 10.0 18.0 0.00 0.00 0.00 67 1002.9
20260508102018 64 202 10.0 18.0 0.00 0.00 0.00 68 1003.0
20260508101517 64 168 9.0 17.0 0.00 0.00 0.00 66 1003.0
20260508101345 64 172 9.0 17.0 0.00 0.00 0.00 68 1003.1
20260508100517 64 192 9.0 15.0 0.00 0.00 0.00 69 1003.0
20260508100333 64 180 9.0 17.0 0.00 0.00 0.00 69 1003.0
20260508100004 63 213 9.0 15.0 0.00 0.00 0.00 72 1003.0
20260508095959 63 175 9.0 17.0 0.00 0.00 0.00 68 1003.0
20260508094509 62 190 11.0 20.0 0.00 0.00 0.00 70 1003.2
20260508094009 63 178 8.0 20.0 0.00 0.00 0.00 70 1003.2
20260508093509 62 153 8.0 14.0 0.00 0.00 0.00 71 1003.1
20260508093009 62 207 12.0 19.0 0.00 0.00 0.00 71 1003.2
20260508092510 62 191 13.0 20.0 0.00 0.00 0.00 70 1003.3
20260508092008 62 194 10.0 20.0 0.00 0.00 0.00 71 1003.3
20260508091509 61 191 8.0 17.0 0.00 0.00 0.00 71 1003.4
20260508091015 61 211 8.0 19.0 0.00 0.00 0.00 74 1003.3
20260508090823 61 186 8.0 19.0 0.00 0.00 0.00 73 1003.3
20260508090010 61 138 8.0 15.0 0.00 0.00 0.00 73 1003.3
20260508085510 61 207 8.0 15.0 0.00 0.00 0.00 74 1003.3
20260508085009 61 211 6.0 12.0 0.00 0.00 0.00 74 1003.3
20260508084509 60 139 7.0 11.0 0.00 0.00 0.00 75 1003.3
20260508084141 59 207 6.0 13.0 0.00 0.00 0.00 76 1003.3
20260508084110 60 182 7.0 12.0 0.00 0.00 0.00 76 1003.3
20260508083010 59 156 5.0 13.0 0.00 0.00 0.00 77 1003.3
20260508082506 59 190 4.0 10.0 0.00 0.00 0.00 78 1003.3
20260508082006 59 194 6.0 11.0 0.00 0.00 0.00 79 1003.3
20260508081505 58 180 7.0 11.0 0.00 0.00 0.00 78 1003.3
20260508081309 58 206 6.0 10.0 0.00 0.00 0.00 79 1003.3
20260508080505 58 175 7.0 16.0 0.00 0.00 0.00 79 1003.3
20260508080006 58 203 8.0 16.0 0.00 0.00 0.00 81 1003.3
20260508075807 58 209 5.0 12.0 0.00 0.00 0.00 82 1003.3
20260508075011 57 197 3.0 9.0 0.00 0.00 0.00 84 1003.4
20260508074504 57 192 4.0 8.0 0.00 0.00 0.00 84 1003.3
20260508074006 57 184 5.0 10.0 0.00 0.00 0.00 84 1003.3
20260508073506 57 189 4.0 10.0 0.00 0.00 0.00 84 1003.3
20260508073006 56 195 4.0 8.0 0.00 0.00 0.00 84 1003.3
20260508072505 56 180 3.0 8.0 0.00 0.00 0.00 84 1003.2
20260508072005 56 172 3.0 8.0 0.00 0.00 0.00 84 1003.2
20260508071505 56 197 3.0 8.0 0.00 0.00 0.00 84 1003.2
20260508071231 56 170 4.0 7.0 0.00 0.00 0.00 85 1003.1
20260508070505 56 180 4.0 7.0 0.00 0.00 0.00 85 1003.1
20260508070005 56 159 4.0 7.0 0.00 0.00 0.00 85 1003.0
20260508065504 56 168 4.0 7.0 0.00 0.00 0.00 85 1003.0
20260508065002 56 187 4.0 8.0 0.00 0.00 0.00 85 1002.9
20260508064503 55 180 4.0 8.0 0.00 0.00 0.00 85 1003.0
20260508064002 55 192 4.0 7.0 0.00 0.00 0.00 86 1002.9
20260508063501 55 178 4.0 7.0 0.00 0.00 0.00 86 1003.0
20260508063001 55 178 3.0 7.0 0.00 0.00 0.00 86 1002.9
20260508062502 55 182 1.0 5.0 0.00 0.00 0.00 87 1002.9
20260508062002 55 184 1.0 4.0 0.00 0.00 0.00 87 1002.9
20260508061501 55 194 1.0 4.0 0.00 0.00 0.00 87 1002.9
20260508061003 55 194 1.0 3.0 0.00 0.00 0.00 87 1002.9
20260508060502 55 192 1.0 4.0 0.00 0.00 0.00 87 1002.7
20260508060305 55 192 2.0 5.0 0.00 0.00 0.00 87 1002.7
20260508055504 55 192 2.0 5.0 0.00 0.00 0.00 87 1002.7
20260508055003 55 191 3.0 5.0 0.00 0.00 0.00 87 1002.7
20260508054501 55 191 3.0 5.0 0.00 0.00 0.00 87 1002.7
20260508054001 55 181 2.0 5.0 0.00 0.00 0.00 86 1002.5
20260508053503 55 184 1.0 4.0 0.00 0.00 0.00 86 1002.5
20260508052956 55 192 0.0 2.0 0.00 0.00 0.00 86 1002.4
20260508052751 55 194 1.0 3.0 0.00 0.00 0.00 86 1002.4
20260508052300 55 208 2.0 4.0 0.00 0.00 0.00 85 1002.4
20260508051445 55 209 3.0 9.0 0.00 0.00 0.00 85 1002.4
20260508051304 55 205 5.0 9.0 0.00 0.00 0.00 84 1002.3
20260508050446 55 190 4.0 8.0 0.00 0.00 0.00 84 1002.3
20260508050302 55 174 4.0 7.0 0.00 0.00 0.00 84 1002.2
20260508045447 55 185 5.0 10.0 0.00 0.00 0.00 83 1002.1
20260508044945 55 194 6.0 10.0 0.00 0.00 0.00 83 1002.2
20260508044447 55 185 6.0 10.0 0.00 0.00 0.00 84 1002.2
20260508043940 55 201 4.0 10.0 0.00 0.00 0.00 84 1002.3
20260508043434 55 236 1.0 7.0 0.00 0.00 0.00 83 1002.3
20260508043249 55 175 0.0 2.0 0.00 0.00 0.00 83 1002.2
20260508042434 55 177 0.0 2.0 0.00 0.00 0.00 83 1002.2
20260508042250 54 190 0.0 2.0 0.00 0.00 0.00 84 1002.2
20260508041434 55 192 0.0 2.0 0.00 0.00 0.00 84 1002.3
20260508040935 55 192 1.0 2.0 0.00 0.00 0.00 84 1002.3
20260508040434 55 192 0.0 2.0 0.00 0.00 0.00 84 1002.2
20260508035933 55 192 0.0 1.0 0.00 0.00 0.00 84 1002.3
20260508035432 55 192 0.0 2.0 0.00 0.00 0.00 84 1002.4
20260508034924 55 192 0.0 2.0 0.00 0.00 0.00 84 1002.4
20260508034413 55 192 0.0 0.0 0.00 0.00 0.00 84 1002.4
20260508033914 55 192 0.0 0.0 0.00 0.00 0.00 84 1002.3
20260508033412 55 192 0.0 0.0 0.00 0.00 0.00 84 1002.3
20260508032914 55 192 0.0 0.0 0.00 0.00 0.00 84 1002.3
20260508032413 55 192 0.0 0.0 0.00 0.00 0.00 84 1002.3
20260508031913 55 192 0.0 0.0 0.00 0.00 0.00 84 1002.3
20260508031413 55 192 0.0 0.0 0.00 0.00 0.00 84 1002.4
20260508030914 55 192 0.0 1.0 0.00 0.00 0.00 84 1002.3
20260508030414 55 193 0.0 1.0 0.00 0.00 0.00 84 1002.3
20260508025909 55 194 0.0 0.0 0.00 0.00 0.00 83 1002.4
20260508025525 55 194 0.0 2.0 0.00 0.00 0.00 84 1002.6
20260508025459 55 194 0.0 1.0 0.00 0.00 0.00 83 1002.6
20260508024410 55 194 1.0 2.0 0.00 0.00 0.00 84 1002.6
20260508023911 55 194 1.0 2.0 0.00 0.00 0.00 84 1002.6
20260508023410 55 195 0.0 3.0 0.00 0.00 0.00 84 1002.7
20260508022911 55 195 0.0 3.0 0.00 0.00 0.00 84 1002.7
20260508022716 55 196 0.0 0.0 0.00 0.00 0.00 84 1002.7
20260508022222 55 196 0.0 0.0 0.00 0.00 0.00 85 1002.7
20260508021404 55 196 0.0 0.0 0.00 0.00 0.00 84 1002.7
20260508021211 55 196 0.0 0.0 0.00 0.00 0.00 84 1002.8
20260508020403 55 196 0.0 0.0 0.00 0.00 0.00 84 1002.8
20260508015901 55 196 0.0 0.0 0.00 0.00 0.00 84 1002.9
20260508015401 55 196 0.0 0.0 0.00 0.00 0.00 84 1003.0
20260508015216 55 196 0.0 0.0 0.00 0.00 0.00 84 1003.1
20260508014403 55 196 0.0 0.0 0.00 0.00 0.00 84 1003.0
20260508013902 55 196 0.0 0.0 0.00 0.00 0.00 83 1003.0
20260508013402 55 196 0.0 0.0 0.00 0.00 0.00 83 1003.0
20260508012903 55 196 0.0 1.0 0.00 0.00 0.00 83 1003.2
20260508012710 55 196 0.0 1.0 0.00 0.00 0.00 84 1003.2
20260508012222 55 196 0.0 1.0 0.00 0.00 0.00 84 1003.3
20260508011401 55 196 0.0 0.0 0.00 0.00 0.00 84 1003.4
20260508010904 55 196 0.0 0.0 0.00 0.00 0.00 83 1003.6
20260508010403 56 196 0.0 2.0 0.00 0.00 0.00 83 1003.6
20260508010209 56 196 0.0 2.0 0.00 0.00 0.00 82 1003.4
20260508005401 56 204 0.0 0.0 0.00 0.00 0.00 82 1003.6
20260508004903 56 204 0.0 0.0 0.00 0.00 0.00 82 1003.7
20260508004402 56 207 0.0 0.0 0.00 0.00 0.00 82 1003.7
20260508003902 56 207 0.0 0.0 0.00 0.00 0.00 82 1003.7
20260508003400 56 207 0.0 0.0 0.00 0.00 0.00 82 1003.7
20260508002900 56 207 0.0 0.0 0.00 0.00 0.00 82 1003.6
20260508002400 56 207 0.0 0.0 0.00 0.00 0.00 82 1003.6
20260508002219 56 207 0.0 0.0 0.00 0.00 0.00 82 1003.6
20260508001400 56 207 0.0 0.0 0.00 0.00 0.00 81 1003.5
20260508000901 56 207 0.0 0.0 0.00 0.00 0.00 81 1003.6
20260508000409 56 207 0.0 1.0 0.00 0.00 0.00 81 1003.5
20260508000209 56 207 0.0 1.0 0.00 0.00 0.00 81 1003.6
20260507235401 56 207 1.0 3.0 0.00 0.00 0.00 81 1003.5
20260507234900 56 207 2.0 3.0 0.00 0.00 0.00 81 1003.8
20260507234408 56 211 2.0 3.0 0.00 0.00 0.00 81 1003.9
20260507233901 56 294 2.0 3.0 0.00 0.00 0.00 81 1003.8
20260507233401 56 313 1.0 3.0 0.00 0.00 0.00 81 1003.8
20260507233207 56 319 0.0 1.0 0.00 0.00 0.00 80 1003.8
20260507232402 56 319 0.0 1.0 0.00 0.00 0.00 80 1003.9
20260507231900 56 319 0.0 1.0 0.00 0.00 0.00 80 1003.9
20260507231403 57 319 0.0 0.0 0.00 0.00 0.00 79 1003.8
20260507230849 57 319 0.0 0.0 0.00 0.00 0.00 79 1003.7
20260507230351 57 319 0.0 2.0 0.00 0.00 0.00 79 1004.0
20260507225848 57 319 0.0 2.0 0.00 0.00 0.00 78 1004.0
20260507225349 58 321 0.0 1.0 0.00 0.00 0.00 77 1003.9
20260507225211 58 321 0.0 1.0 0.00 0.00 0.00 77 1003.8
20260507224347 58 321 0.0 0.0 0.00 0.00 0.00 77 1003.8
20260507224139 58 321 0.0 0.0 0.00 0.00 0.00 77 1004.0
20260507223459 58 321 1.0 3.0 0.00 0.00 0.00 77 1004.1
20260507223435 58 321 0.0 0.0 0.00 0.00 0.00 77 1004.0
20260507222335 58 321 1.0 4.0 0.00 0.00 0.00 77 1004.2
20260507221834 58 321 1.0 4.0 0.00 0.00 0.00 77 1004.2
20260507221341 58 321 1.0 2.0 0.00 0.00 0.00 77 1004.2
20260507221141 58 316 1.0 3.0 0.00 0.00 0.00 76 1004.5
20260507220640 58 316 1.0 3.0 0.00 0.00 0.00 76 1004.5
20260507215832 58 316 2.0 5.0 0.00 0.00 0.00 76 1004.5
20260507215332 58 325 3.0 5.0 0.00 0.00 0.00 76 1004.4
20260507214829 58 317 3.0 5.0 0.00 0.00 0.00 76 1004.4
20260507214634 58 296 3.0 5.0 0.00 0.00 0.00 76 1004.6
20260507213829 58 263 3.0 5.0 0.00 0.00 0.00 76 1004.8
20260507213330 58 288 2.0 5.0 0.00 0.00 0.00 75 1004.8
20260507212829 58 289 2.0 7.0 0.00 0.00 0.00 75 1004.9
20260507212645 58 284 3.0 7.0 0.00 0.00 0.00 75 1004.9
20260507211829 58 265 3.0 7.0 0.00 0.00 0.00 75 1005.0
20260507211630 58 263 4.0 7.0 0.00 0.00 0.00 75 1005.0
20260507210829 58 280 4.0 7.0 0.00 0.00 0.00 75 1004.9
20260507210331 58 278 4.0 7.0 0.00 0.00 0.00 75 1004.8
20260507210146 58 281 4.0 7.0 0.00 0.00 0.00 75 1004.8
20260507205331 58 272 4.0 9.0 0.00 0.00 0.00 75 1004.8
20260507204830 58 281 4.0 9.0 0.00 0.00 0.00 75 1004.8
20260507204639 58 285 3.0 8.0 0.00 0.00 0.00 75 1004.8
20260507203832 58 284 3.0 8.0 0.00 0.00 0.00 75 1004.7
20260507203553 58 292 4.0 8.0 0.00 0.00 0.00 75 1004.7
20260507202827 58 274 5.0 9.0 0.00 0.00 0.00 76 1004.6
20260507202322 58 279 5.0 10.0 0.00 0.00 0.00 76 1004.6
20260507202154 58 258 6.0 10.0 0.00 0.00 0.00 76 1004.6
20260507201309 58 275 6.0 10.0 0.00 0.00 0.00 76 1004.5
20260507200809 58 275 5.0 10.0 0.00 0.00 0.00 76 1004.4
20260507200618 58 281 4.0 8.0 0.00 0.00 0.00 76 1004.5
20260507195807 58 281 4.0 7.0 0.00 0.00 0.00 76 1004.4
20260507195307 59 267 5.0 10.0 0.00 0.00 0.00 76 1004.4
20260507195128 59 279 6.0 10.0 0.00 0.00 0.00 76 1004.4
20260507194305 59 267 7.0 11.0 0.00 0.00 0.00 75 1004.3
20260507193805 59 295 6.0 11.0 0.00 0.00 0.00 75 1004.3
20260507193303 59 298 6.0 10.0 0.00 0.00 0.00 75 1004.3
20260507192804 59 269 6.0 12.0 0.00 0.00 0.00 73 1004.3
20260507192306 59 278 7.0 12.0 0.00 0.00 0.00 74 1004.3
20260507191803 59 254 6.0 10.0 0.00 0.00 0.00 74 1004.2
20260507191301 59 252 6.0 10.0 0.00 0.00 0.00 73 1004.2
20260507190801 59 280 6.0 10.0 0.00 0.00 0.00 73 1004.1
20260507190429 59 282 6.0 11.0 0.00 0.00 0.00 73 1004.1
20260507190356 59 265 6.0 10.0 0.00 0.00 0.00 74 1004.1
20260507185803 59 282 6.0 11.0 0.00 0.00 0.00 73 1004.1
20260507185737 60 293 6.0 11.0 0.00 0.00 0.00 73 1004.0
20260507185109 60 295 7.0 11.0 0.00 0.00 0.00 73 1004.1
20260507184813 60 295 7.0 11.0 0.00 0.00 0.00 73 1004.1
20260507184645 60 272 7.0 11.0 0.00 0.00 0.00 72 1004.1
20260507183802 60 299 6.0 11.0 0.00 0.00 0.00 72 1004.0
20260507183301 60 269 5.0 11.0 0.00 0.00 0.00 73 1004.0
20260507182802 60 283 7.0 14.0 0.00 0.00 0.00 73 1004.0
20260507182302 60 268 8.0 14.0 0.00 0.00 0.00 73 1004.1
20260507181803 60 267 8.0 13.0 0.00 0.00 0.00 73 1004.0
20260507181300 60 267 8.0 13.0 0.00 0.00 0.00 73 1004.0
20260507180802 60 291 7.0 13.0 0.00 0.00 0.00 74 1004.0
20260507180301 61 270 7.0 13.0 0.00 0.00 0.00 75 1004.0
20260507175804 61 284 6.0 11.0 0.00 0.00 0.00 75 1004.0
20260507175306 61 312 6.0 11.0 0.00 0.00 0.00 75 1003.9
20260507174802 60 307 7.0 11.0 0.00 0.00 0.00 75 1003.9
20260507174558 60 267 8.0 11.0 0.00 0.00 0.00 74 1003.9
20260507173804 61 278 7.0 11.0 0.00 0.00 0.00 74 1003.9
20260507173302 61 300 6.0 12.0 0.00 0.00 0.00 74 1003.9
20260507173244 61 254 7.0 11.0 0.00 0.00 0.00 73 1004.0
20260507172858 61 302 7.0 12.0 0.00 0.00 0.00 74 1004.0
20260507171756 61 313 7.0 11.0 0.00 0.00 0.00 74 1003.9
20260507171246 61 309 8.0 13.0 0.00 0.00 0.00 74 1003.8
20260507170741 61 283 7.0 13.0 0.00 0.00 0.00 75 1003.8
20260507170602 61 273 6.0 12.0 0.00 0.00 0.00 74 1003.9
20260507165732 61 276 8.0 12.0 0.00 0.00 0.00 75 1003.9
20260507165233 62 300 9.0 14.0 0.00 0.00 0.00 75 1003.9
20260507164733 62 288 9.0 14.0 0.00 0.00 0.00 74 1003.9
20260507164231 62 278 9.0 14.0 0.00 0.00 0.00 73 1003.9
20260507163733 62 265 8.0 15.0 0.00 0.00 0.00 75 1003.8
20260507163232 62 279 8.0 15.0 0.00 0.00 0.00 74 1003.8
20260507162731 62 311 9.0 14.0 0.00 0.00 0.00 75 1003.9
20260507162538 62 270 8.0 14.0 0.00 0.00 0.00 75 1003.8
20260507161731 62 280 9.0 17.0 0.00 0.00 0.00 74 1003.9
20260507161233 62 316 9.0 17.0 0.00 0.00 0.00 76 1004.0
20260507160921 63 338 9.0 14.0 0.00 0.00 0.00 74 1004.0
20260507160844 63 268 9.0 15.0 0.00 0.00 0.00 74 1004.0
20260507155731 63 323 10.0 17.0 0.00 0.00 0.00 74 1004.0
20260507155231 63 284 12.0 20.0 0.00 0.00 0.00 72 1003.9
20260507155050 63 285 10.0 20.0 0.00 0.00 0.00 72 1003.8
20260507154231 64 297 9.0 14.0 0.00 0.00 0.00 74 1003.8
20260507153732 64 275 8.0 14.0 0.00 0.00 0.00 73 1003.8
20260507153229 64 294 8.0 14.0 0.00 0.00 0.00 74 1003.8
20260507152729 63 272 9.0 14.0 0.00 0.00 0.00 73 1003.9
20260507152229 63 273 11.0 18.0 0.00 0.00 0.00 74 1003.9
20260507151731 63 271 10.0 18.0 0.00 0.00 0.00 73 1004.0
20260507151544 63 281 10.0 16.0 0.00 0.00 0.00 73 1004.0
20260507150729 63 264 11.0 18.0 0.00 0.00 0.00 73 1004.1
20260507150230 63 279 10.0 18.0 0.00 0.00 0.00 72 1004.2
20260507145729 64 259 9.0 17.0 0.00 0.00 0.00 71 1004.2
20260507145229 64 286 10.0 18.0 0.00 0.00 0.00 73 1004.1
20260507144729 64 296 9.0 18.0 0.00 0.00 0.00 73 1004.1
20260507144229 64 304 8.0 14.0 0.00 0.00 0.00 73 1004.2
20260507144047 64 325 9.0 14.0 0.00 0.00 0.00 73 1004.3
20260507143231 64 309 9.0 13.0 0.00 0.00 0.00 72 1004.3
20260507142729 64 336 8.0 12.0 0.00 0.00 0.00 72 1004.4
20260507142229 64 311 8.0 13.0 0.00 0.00 0.00 74 1004.4
20260507141731 64 304 9.0 13.0 0.00 0.00 0.00 73 1004.4
20260507141230 64 302 9.0 13.0 0.00 0.00 0.00 72 1004.4
20260507140729 64 300 9.0 15.0 0.00 0.00 0.00 74 1004.5
20260507140229 64 313 8.0 15.0 0.00 0.00 0.00 72 1004.5
20260507135729 64 331 9.0 16.0 0.00 0.00 0.00 74 1004.5
20260507135229 63 323 9.0 16.0 0.00 0.00 0.00 75 1004.5
20260507134729 63 285 9.0 15.0 0.00 0.00 0.00 73 1004.5
20260507134229 64 317 9.0 15.0 0.00 0.00 0.00 74 1004.6
20260507133739 64 338 9.0 14.0 0.00 0.00 0.00 75 1004.6
20260507133230 64 322 9.0 14.0 0.00 0.00 0.00 74 1004.6
20260507133046 64 307 9.0 15.0 0.00 0.00 0.00 74 1004.6
20260507132230 64 302 9.0 15.0 0.00 0.00 0.00 74 1004.7
20260507131729 64 319 8.0 15.0 0.00 0.00 0.00 73 1004.7
20260507131229 64 280 9.0 16.0 0.00 0.00 0.00 74 1004.7
20260507130734 63 279 9.0 17.0 0.00 0.00 0.00 76 1004.7
20260507130229 63 270 9.0 17.0 0.00 0.00 0.00 74 1004.7
20260507130050 63 298 9.0 16.0 0.00 0.00 0.00 75 1004.7
20260507125235 63 309 11.0 18.0 0.00 0.00 0.00 75 1004.7
20260507124735 63 311 10.0 18.0 0.00 0.00 0.00 75 1004.8
20260507124228 64 259 8.0 16.0 0.00 0.00 0.00 74 1004.8
20260507123727 63 270 9.0 16.0 0.00 0.00 0.00 75 1004.8
20260507123215 63 280 9.0 17.0 0.00 0.00 0.00 74 1004.8
20260507122710 63 271 10.0 18.0 0.00 0.00 0.00 74 1004.8
20260507122204 63 285 9.0 18.0 0.00 0.00 0.00 72 1004.9